COSMOS 1275 DEB, 12673

Orbit data source: Space-Track

COSMOS 1275 DEB, 12673 is space debris in LEO originally from a launch on Thu, 04 Jun 1981 UTC launched from the Plesetsk Missile And Space Complex (PKMTR). Debris objects in space refer to the collection of defunct objects orbiting the Earth. Examples of debris include non-operational satellites, rocket bodies, and fragments generated from explosions, collisions, or faulty payload assembly.

Loading next visibility...
COSMOS 1275 DEB details
Identifier
12673, 1981-053AD
Orbit
LEO
Last TLE update12 hours ago
Origin
Flag of CISVMF (CIS)
ManufacturerUnknown
MissionSpacecraft
Bus & MotorUnknown
MassUnknown
Launch date (UTC)
1981-06-04 (44 years ago)
Launch vehicleUnknown
Launch site
Plesetsk Missile And Space Complex (PKMTR)
Object type
Payload
Rocket body
Debris
Shape & HBRUnknown
Radar Cross SectionMedium (>0.1 m² and <1 m²)

Expand to show TLE details & history

TLE from 12 hours ago
0 COSMOS 1275 DEB
1 12673U 81053AD  24361.04344965  .00005276  00000-0  30126-2 0  9991
2 12673  82.8525 210.6332 0042132 357.8471 116.4881 14.09014249199018
Epoch: 2024-12-26T01:02Z
Definitive object data (Epoch: 2024-12-26T01:02:34.049Z)
Latitude64.37358°
Longitude-95.1099°
Altitude887.563 km
Speed7.407 km/s
True Right ascension01h 02m 14s
True Declination64° 14' 30"
Sunlit
Object was in daylight at TLE epoch
Visualization TLE readout
Latitude43.31747°
Longitude106.33384°
Altitude848.372 km
Speed7.443 km/s
Apparent Right ascension18h 49m 19s
Apparent Declination14° 53' 49"
Sunlit
Object is in daylight
Visualization observer readout
Local Sidereal Time11:59:44
Azimuth70.712° E
Elevation0.334°
Doppler factor1
Orbital elements
Apogee altitude890.347 km
Perigee altitude829.357 km
Semi-major axis7,237.989 km
Eccentricity0.0042132
Inclination82.8525°
RAAN210.6332°
Arg. of periapsis357.8471°
True anomaly116.9192°
Mean anomaly116.4881°
Eccentric anomaly116.70375°
Mean motion3.52465 °/min
BSTAR0.0030126
Orbital period102.14 mins
Loading maneuver chart data...
Loading historical data...
Loading historical data...
Loading historical data...
Loading historical data...
Loading historical data...
Loading historical data...
Loading historical data...

COSMOS 1275 DEB Visibility forecast

Observer location: undefined°, undefined

Span
Click to sort rows by Start time (UTC) header in descending order
Start Az.
Max El. time (UTC)
Max El. Az.
Max El.
End time (UTC)
End Az.
9 mins2024-12-26 14:15:11.833Z150.025° SSE2024-12-26 14:19:11.833Z94.018° ESE30.505°2024-12-26 14:24:11.833Z25.445° NE
7 mins2024-12-26 15:59:11.833Z240.062° WSW2024-12-26 16:02:11.833Z282.505° WNW24.259°2024-12-26 16:06:11.833Z337.416° NNW
7 mins2024-12-27 00:57:11.833Z30.139° NE2024-12-27 01:00:11.833Z67.59° E21.095°2024-12-27 01:04:11.833Z117.274° SE
8 mins2024-12-27 02:40:11.833Z331.83° NNW2024-12-27 02:43:11.833Z284.165° WNW35.774°2024-12-27 02:48:11.833Z200.569° SSW
|